Cape Byron Observation History
Time Wind Speed Temp Pressure Rel. Hum Rain
29/09:30am N 18-23 kts 22.6°c 1012.4 hPa 90% 0.0mm
29/09:00am N 16-23 kts 22.2°c 1012.5 hPa 91% 0.0mm
29/08:30am N 14-21 kts 21.9°c 1012.7 hPa 94% 0.0mm
29/08:00am N 15-22 kts 21.6°c 1012.4 hPa 94% 0.0mm
29/07:30am N 17-24 kts 21.2°c 1012.2 hPa 96% 0.0mm
29/07:00am N 16-21 kts 20.8°c 1012.0 hPa 100% 0.0mm
29/06:30am N 15-22 kts 20.5°c 1011.8 hPa 100% 0.0mm
29/06:00am N 17-22 kts 20.5°c 1011.6 hPa 100% 0.0mm
29/05:30am N 17-23 kts 20.5°c 1011.4 hPa 100% 0.0mm
29/05:00am NNW 17-23 kts 20.6°c 1011.1 hPa 100% 0.0mm
29/04:30am N 18-25 kts 20.6°c 1011.0 hPa 100% 0.0mm
29/04:00am N 17-22 kts 20.7°c 1011.2 hPa 100% 0.0mm
29/03:30am N 18-25 kts 20.8°c 1011.2 hPa 100% 0.0mm
29/03:00am N 18-25 kts 20.9°c 1011.5 hPa 100% 0.0mm
29/02:30am N 18-24 kts 20.9°c 1011.7 hPa 100% 0.0mm
29/02:00am N 17-23 kts 21.0°c 1012.0 hPa 100% 0.0mm
29/01:30am N 17-23 kts 21.1°c 1012.2 hPa 100% 0.0mm
29/01:00am NNW 17-26 kts 21.2°c 1012.7 hPa 100% 0.0mm
29/12:30am N 17-23 kts 21.4°c 1013.0 hPa 99% 0.0mm
29/12:00am NNW 17-23 kts 21.5°c 1013.3 hPa 99% 0.0mm
Time Wind Speed Temp Pressure Rel. Hum Rain
28/11:30pm NNW 16-23 kts 21.7°c 1013.4 hPa 98% 0.0mm
28/11:00pm NNW 17-22 kts 21.7°c 1013.6 hPa 97% 0.0mm
28/10:30pm NNW 16-23 kts 21.8°c 1013.6 hPa 96% 0.0mm
28/10:00pm NNW 17-25 kts 21.9°c 1013.7 hPa 97% 0.0mm
28/09:30pm N 19-28 kts 22.1°c 1013.3 hPa 98% 0.0mm
28/09:25pm N 18-28 kts 22.1°c 1013.4 hPa 98% 0.0mm
28/09:00pm N 17-23 kts 22.0°c 1013.3 hPa 98% 0.0mm
28/08:30pm N 17-23 kts 22.1°c 1013.0 hPa 98% 0.0mm
28/08:00pm N 18-25 kts 22.4°c 1012.9 hPa 96% 0.0mm
28/07:30pm N 20-28 kts 22.8°c 1012.4 hPa 93% 0.0mm
28/07:00pm N 18-25 kts 23.2°c 1012.4 hPa 92% 0.0mm
28/06:30pm N 19-25 kts 23.3°c 1012.3 hPa 90% 0.0mm
28/06:00pm N 17-24 kts 23.7°c 1012.4 hPa 88% 0.0mm
28/05:30pm N 17-25 kts 24.3°c 1012.5 hPa 86% 0.0mm
28/05:00pm N 17-25 kts 24.4°c 1012.6 hPa 85% 0.0mm
28/04:30pm N 18-23 kts 24.7°c 1012.7 hPa 85% 0.0mm
28/04:00pm N 17-24 kts 24.7°c 1013.1 hPa 84% 0.0mm
28/03:30pm N 16-23 kts 25.0°c 1013.3 hPa 82% 0.0mm
28/03:00pm NNE 15-22 kts 24.9°c 1013.8 hPa 81% 0.0mm
28/02:30pm NNE 17-27 kts 25.0°c 1014.0 hPa 81% 0.0mm
28/02:21pm NNE 17-27 kts 25.0°c 1014.0 hPa 79% 0.0mm
28/02:00pm NNE 17-25 kts 24.8°c 1014.5 hPa 81% 0.0mm
28/01:30pm NNE 16-22 kts 24.8°c 1015.0 hPa 81% 0.0mm
28/01:13pm NNE 15-25 kts 24.7°c 1015.0 hPa 80% 0.0mm
28/01:00pm NNE 16-23 kts 24.8°c 1015.3 hPa 79% 0.0mm
28/12:30pm NNE 16-23 kts 24.6°c 1015.7 hPa 78% 0.0mm
28/12:00pm NNE 17-24 kts 24.5°c 1015.8 hPa 78% 0.0mm
28/11:30am NNE 17-23 kts 24.4°c 1016.2 hPa 79% 0.0mm
28/11:00am NNE 15-20 kts 24.4°c 1016.5 hPa 78% 0.0mm
28/10:30am N 12-17 kts 24.4°c 1017.0 hPa 78% 0.0mm
28/10:00am N 12-17 kts 24.3°c 1017.2 hPa 79% 0.0mm
28/09:30am N 9-13 kts 23.8°c 1017.4 hPa 84% 0.0mm
28/09:00am N 9-12 kts 23.3°c 1017.5 hPa 85% 0.0mm
28/08:30am N 9-14 kts 22.7°c 1017.4 hPa 88% 0.0mm
28/08:00am N 9-12 kts 21.9°c 1017.4 hPa 91% 0.0mm
28/07:30am N 7-9 kts 21.7°c 1017.4 hPa 92% 0.0mm
28/07:00am N 8-11 kts 21.0°c 1017.1 hPa 94% 0.0mm
28/06:30am NNW 8-12 kts 20.7°c 1016.8 hPa 96% 0.0mm
28/06:00am NNW 8-11 kts 20.3°c 1016.7 hPa 98% 0.0mm
28/05:30am NNW 8-11 kts 20.2°c 1016.6 hPa 97% 0.0mm
28/05:00am NNW 7-11 kts 20.3°c 1016.5 hPa 97% 0.0mm
28/04:30am NNW 7-9 kts 20.3°c 1016.5 hPa 98% 0.0mm
28/04:00am NNW 8-11 kts 20.5°c 1016.5 hPa 98% 0.0mm
28/03:30am N 8-10 kts 20.6°c 1016.5 hPa 98% 0.0mm
28/03:00am N 8-11 kts 20.8°c 1016.7 hPa 97% 0.0mm
28/02:30am NNW 8-10 kts 20.9°c 1017.0 hPa 97% 0.0mm
28/02:00am N 9-14 kts 21.5°c 1017.3 hPa 89% 0.0mm
28/01:30am N 11-15 kts 21.7°c 1017.5 hPa 89% 0.0mm
28/01:00am N 11-16 kts 21.8°c 1017.8 hPa 87% 0.0mm
28/12:30am NNE 9-12 kts 21.9°c 1018.1 hPa 87% 0.0mm
28/12:00am NE 14-19 kts 22.0°c 1018.2 hPa 86% 0.0mm
Time Wind Speed Temp Pressure Rel. Hum Rain
27/11:30pm NE 10-14 kts 22.1°c 1018.7 hPa 88% 0.0mm
27/11:00pm NE 12-18 kts 22.2°c 1018.9 hPa 87% 0.0mm
27/10:30pm NE 13-17 kts 22.3°c 1018.8 hPa 86% 0.0mm
27/10:00pm NE 13-16 kts 22.4°c 1018.8 hPa 84% 0.0mm
27/09:30pm NE 15-16 kts 22.5°c 1018.7 hPa 83% 0.0mm
27/09:00pm NE 15-16 kts 22.3°c 1018.6 hPa 85% 0.0mm
27/08:30pm NE 14-17 kts 22.7°c 1018.3 hPa 84% 0.0mm
27/08:00pm NE 12-15 kts 22.6°c 1018.4 hPa 85% 0.0mm
27/07:30pm NE 10-13 kts 23.3°c 1018.3 hPa 81% 0.0mm
27/07:00pm ENE 9-13 kts 25.4°c 1018.0 hPa 74% 0.0mm
27/06:30pm ENE 8-12 kts 26.8°c 1017.8 hPa 72% 0.0mm
27/06:00pm ENE 7-10 kts 28.3°c 1017.6 hPa 70% 0.0mm
27/05:30pm ENE 7-11 kts 28.8°c 1017.3 hPa 68% 0.0mm
27/05:00pm ENE 7-9 kts 28.5°c 1017.4 hPa 69% 0.0mm
27/04:30pm ENE 7-10 kts 29.1°c 1017.2 hPa 66% 0.0mm
27/04:00pm ENE 8-11 kts 30.0°c 1017.2 hPa 65% 0.0mm
27/03:30pm ENE 8-10 kts 30.0°c 1017.5 hPa 65% 0.0mm
27/03:00pm ENE 9-11 kts 29.5°c 1017.7 hPa 65% 0.0mm
27/02:30pm ENE 9-11 kts 29.4°c 1017.9 hPa 65% 0.0mm
27/02:00pm ENE 10-14 kts 29.3°c 1018.1 hPa 67% 0.0mm
27/01:30pm ENE 10-14 kts 29.3°c 1018.3 hPa 64% 0.0mm
27/01:00pm ENE 11-13 kts 29.7°c 1018.5 hPa 66% 0.0mm
27/12:30pm ENE 9-11 kts 29.3°c 1018.8 hPa 69% 0.0mm
27/12:00pm ENE 9-12 kts 28.8°c 1018.9 hPa 67% 0.0mm
27/11:30am ENE 9-13 kts 28.0°c 1019.1 hPa 70% 0.0mm
27/11:00am E 8-11 kts 26.6°c 1019.1 hPa 74% 0.0mm
27/10:30am ENE 8-11 kts 26.9°c 1019.2 hPa 77% 0.0mm
27/10:00am ENE 9-11 kts 26.8°c 1019.1 hPa 77% 0.0mm
27/09:30am NE 6-9 kts 24.9°c 1018.9 hPa 82% 0.0mm
27/09:00am ENE 5-6 kts 25.4°c 1018.7 hPa 84% 0.0mm
27/08:30am ENE 4-6 kts 24.0°c 1018.5 hPa 86% 0.0mm
27/08:00am NW 2-3 kts 23.1°c 1018.1 hPa 86% 0.0mm
27/07:30am NNE 4-6 kts 22.6°c 1017.3 hPa 88% 0.0mm
27/07:00am N 5-6 kts 22.0°c 1016.8 hPa 89% 0.0mm
27/06:30am NNW 6-8 kts 21.5°c 1016.3 hPa 93% 0.0mm
27/06:00am NNW 7-9 kts 20.4°c 1015.8 hPa 95% 0.0mm
27/05:30am NW 7-8 kts 20.2°c 1015.6 hPa 97% 0.0mm
27/05:00am NW 7-8 kts 20.0°c 1015.3 hPa 97% 0.0mm
27/04:30am NW 6-7 kts 19.8°c 1014.9 hPa 99% 0.0mm
27/04:00am NW 6-7 kts 19.8°c 1014.7 hPa 100% 0.0mm
27/03:30am NW 5-7 kts 20.2°c 1014.7 hPa 100% 0.0mm
27/03:00am NNW 5-7 kts 20.8°c 1014.5 hPa 100% 0.0mm
27/02:30am NNW 7-8 kts 21.0°c 1014.6 hPa 98% 0.0mm
27/02:00am NNW 7-9 kts 21.2°c 1014.8 hPa 98% 0.0mm
27/01:30am N 7-9 kts 21.3°c 1015.0 hPa 96% 0.0mm
27/01:00am NNW 7-9 kts 21.3°c 1015.4 hPa 97% 0.0mm
27/12:30am NNW 6-8 kts 21.3°c 1015.6 hPa 98% 0.0mm
27/12:00am NNW 6-9 kts 20.9°c 1015.5 hPa 98% 0.0mm